TimeEDT,TemperatureF,Dew PointF,Humidity,Sea Level PressureIn,VisibilityMPH,Wind Direction,Wind SpeedMPH,Gust SpeedMPH,PrecipitationIn,Events,Conditions,WindDirDegrees,DateUTC
12:54 AM,33.1,14.0,46,30.14,10.0,Variable,6.9,-,N/A,,Overcast,0,2013-03-14 04:54:00
1:54 AM,34.0,15.1,46,30.13,10.0,WNW,8.1,21.9,N/A,,Mostly Cloudy,300,2013-03-14 05:54:00
2:54 AM,33.1,16.0,50,30.14,10.0,Variable,3.5,-,N/A,,Overcast,0,2013-03-14 06:54:00
3:54 AM,32.0,15.1,50,30.14,10.0,Variable,5.8,-,N/A,,Overcast,0,2013-03-14 07:54:00
4:54 AM,30.0,14.0,51,30.14,10.0,WNW,4.6,-,N/A,,Partly Cloudy,300,2013-03-14 08:54:00
5:54 AM,30.0,14.0,51,30.15,10.0,Calm,Calm,-,N/A,,Clear,0,2013-03-14 09:54:00
6:54 AM,27.0,12.9,56,30.17,10.0,Calm,Calm,-,N/A,,Clear,0,2013-03-14 10:54:00
7:54 AM,30.0,14.0,51,30.19,10.0,Calm,Calm,-,N/A,,Clear,0,2013-03-14 11:54:00
8:54 AM,33.1,14.0,46,30.20,10.0,Variable,3.5,-,N/A,,Clear,0,2013-03-14 12:54:00
9:54 AM,37.0,12.9,37,30.21,10.0,WNW,5.8,-,N/A,,Clear,300,2013-03-14 13:54:00
10:54 AM,39.9,15.1,36,30.21,10.0,Variable,5.8,-,N/A,,Clear,0,2013-03-14 14:54:00
11:54 AM,41.0,15.1,35,30.20,10.0,West,10.4,17.3,N/A,,Clear,280,2013-03-14 15:54:00
12:54 PM,45.0,16.0,31,30.18,10.0,WNW,11.5,18.4,N/A,,Clear,290,2013-03-14 16:54:00
1:54 PM,46.0,15.1,29,30.16,10.0,WSW,11.5,20.7,N/A,,Clear,250,2013-03-14 17:54:00
2:54 PM,48.0,15.1,27,30.14,10.0,WNW,9.2,18.4,N/A,,Clear,290,2013-03-14 18:54:00
3:54 PM,50.0,14.0,24,30.12,10.0,West,10.4,-,N/A,,Clear,280,2013-03-14 19:54:00
4:54 PM,50.0,12.9,23,30.11,10.0,WNW,8.1,17.3,N/A,,Clear,290,2013-03-14 20:54:00
5:54 PM,48.0,12.9,24,30.10,10.0,West,8.1,21.9,N/A,,Clear,270,2013-03-14 21:54:00
6:54 PM,46.0,14.0,28,30.12,10.0,Variable,6.9,17.3,N/A,,Clear,0,2013-03-14 22:54:00
7:54 PM,39.9,15.1,36,30.14,10.0,South,6.9,-,N/A,,Clear,180,2013-03-14 23:54:00
8:54 PM,41.0,12.9,32,30.15,10.0,West,8.1,-,N/A,,Clear,270,2013-03-15 00:54:00
9:54 PM,41.0,12.0,31,30.14,10.0,Calm,Calm,-,N/A,,Clear,0,2013-03-15 01:54:00
10:54 PM,39.0,12.9,34,30.14,10.0,West,6.9,-,N/A,,Clear,280,2013-03-15 02:54:00
11:54 PM,39.9,12.0,32,30.15,10.0,Variable,4.6,-,N/A,,Clear,0,2013-03-15 03:54:00